When you browse on this site, cookies collect data to enhance your experience and personalize the content and advertising you see.
Visit our Privacy Policy to learn more. By continuing to use the site, you agree to this use of cookies and data.
  • In Portugal
  • List of Countries
  • For 7 days
  • Water Temperature
  • Satellite Maps
  • Weather Map
  • Weather Widgets
  • user-avatar
    Login

    Hourly Weather Salta

    Today, 24 May, Friday

    Time Temperature Precipitation Wind Pressure Humidity
    00:00 +8°C° 0 mm 1 mps 653 mmHg 64%
    01:00 +8°C° 0 mm 1 mps 653 mmHg 62%
    02:00 +8°C° 0 mm 1 mps 652 mmHg 60%
    03:00 +8°C° 0 mm 1 mps 652 mmHg 58%
    04:00 +8°C° 0 mm 1 mps 652 mmHg 56%
    05:00 +8°C° 0 mm 1 mps 652 mmHg 54%
    06:00 +9°C° 0 mm 1 mps 652 mmHg 51%
    07:00 +10°C° 0 mm 1 mps 652 mmHg 48%
    08:00 +11°C° 0 mm 1 mps 653 mmHg 46%
    09:00 +13°C° 0 mm 1 mps 653 mmHg 41%
    10:00 +16°C° 0 mm 2 mps 654 mmHg 36%
    11:00 +19°C° 0 mm 2 mps 655 mmHg 31%
    12:00 +20°C° 0 mm 2 mps 654 mmHg 30%
    13:00 +20°C° 0 mm 3 mps 653 mmHg 29%
    14:00 +21°C° 0 mm 3 mps 653 mmHg 28%
    15:00 +20°C° 0 mm 2 mps 652 mmHg 31%
    16:00 +19°C° 0 mm 2 mps 652 mmHg 35%
    17:00 +17°C° 0 mm 2 mps 651 mmHg 38%
    18:00 +15°C° 0 mm 1 mps 650 mmHg 41%
    19:00 +13°C° 0 mm 1 mps 650 mmHg 44%
    20:00 +10°C° 0 mm 1 mps 649 mmHg 47%
    21:00 +10°C° 0 mm 1 mps 649 mmHg 47%
    22:00 +9°C° 0 mm 1 mps 649 mmHg 47%
    23:00 +9°C° 0 mm 1 mps 649 mmHg 47%

    Tomorrow, 25 May, Saturday

    Time Temperature Precipitation Wind Pressure Humidity
    00:00 +9°C° 0 mm 1 mps 649 mmHg 47%
    01:00 +9°C° 0 mm 1 mps 649 mmHg 48%
    02:00 +8°C° 0 mm 1 mps 648 mmHg 48%
    03:00 +8°C° 0 mm 1 mps 648 mmHg 48%
    04:00 +8°C° 0 mm 1 mps 648 mmHg 48%
    05:00 +8°C° 0 mm 1 mps 648 mmHg 48%
    06:00 +9°C° 0 mm 1 mps 648 mmHg 47%
    07:00 +10°C° 0 mm 1 mps 648 mmHg 45%
    08:00 +11°C° 0 mm 1 mps 649 mmHg 43%
    09:00 +14°C° 0 mm 1 mps 650 mmHg 38%
    10:00 +17°C° 0 mm 2 mps 650 mmHg 34%
    11:00 +20°C° 0 mm 2 mps 651 mmHg 30%
    12:00 +21°C° 0 mm 2 mps 650 mmHg 29%
    13:00 +23°C° 0 mm 2 mps 649 mmHg 28%
    14:00 +24°C° 0 mm 3 mps 648 mmHg 27%
    15:00 +23°C° 0 mm 2 mps 648 mmHg 31%
    16:00 +20°C° 0 mm 2 mps 647 mmHg 36%
    17:00 +19°C° 0 mm 2 mps 647 mmHg 41%
    18:00 +17°C° 0 mm 2 mps 647 mmHg 46%
    19:00 +15°C° 0 mm 1 mps 647 mmHg 51%
    20:00 +12°C° 0 mm 1 mps 647 mmHg 56%
    21:00 +12°C° 0 mm 1 mps 647 mmHg 56%
    22:00 +12°C° 0 mm 1 mps 647 mmHg 55%
    23:00 +11°C° 0 mm 1 mps 647 mmHg 55%

    Day after tomorrow, 26 May, Sunday

    Time Temperature Precipitation Wind Pressure Humidity
    00:00 +11°C° 0 mm 1 mps 647 mmHg 52%
    01:00 +12°C° 0 mm 1 mps 647 mmHg 50%
    02:00 +12°C° 0 mm 2 mps 647 mmHg 48%
    03:00 +12°C° 0 mm 2 mps 647 mmHg 45%
    04:00 +12°C° 0 mm 2 mps 647 mmHg 43%
    05:00 +12°C° 0 mm 2 mps 647 mmHg 41%
    06:00 +13°C° 0 mm 2 mps 647 mmHg 38%
    07:00 +14°C° 0 mm 2 mps 648 mmHg 35%
    08:00 +15°C° 0 mm 2 mps 648 mmHg 32%
    09:00 +18°C° 0 mm 2 mps 649 mmHg 29%
    10:00 +21°C° 0 mm 2 mps 650 mmHg 25%
    11:00 +26°C° 0 mm 2 mps 651 mmHg 22%
    12:00 +26°C° 0 mm 3 mps 650 mmHg 22%
    13:00 +26°C° 0 mm 3 mps 649 mmHg 22%
    14:00 +27°C° 0 mm 3 mps 648 mmHg 23%
    15:00 +25°C° 0 mm 3 mps 648 mmHg 30%
    16:00 +22°C° 0 mm 3 mps 648 mmHg 37%
    17:00 +21°C° 0 mm 3 mps 648 mmHg 44%
    18:00 +18°C° 0 mm 2 mps 648 mmHg 53%
    19:00 +16°C° 0 mm 1 mps 648 mmHg 62%
    20:00 +13°C° 0 mm 1 mps 648 mmHg 71%
    21:00 +13°C° 0 mm 1 mps 648 mmHg 71%
    22:00 +13°C° 0 mm 1 mps 648 mmHg 71%
    23:00 +12°C° 0 mm 1 mps 649 mmHg 71%

    27 May, Monday

    Time Temperature Precipitation Wind Pressure Humidity
    00:00 +12°C° 0 mm 1 mps 649 mmHg 69%
    01:00 +12°C° 0 mm 1 mps 648 mmHg 68%
    02:00 +12°C° 0 mm 1 mps 648 mmHg 66%
    03:00 +12°C° 0 mm 1 mps 648 mmHg 66%
    04:00 +12°C° 0 mm 1 mps 648 mmHg 65%
    05:00 +12°C° 0 mm 1 mps 648 mmHg 64%
    06:00 +12°C° 0 mm 1 mps 649 mmHg 60%
    07:00 +13°C° 0 mm 1 mps 649 mmHg 56%
    08:00 +14°C° 0 mm 1 mps 650 mmHg 52%
    09:00 +16°C° 0 mm 2 mps 651 mmHg 46%
    10:00 +19°C° 0 mm 2 mps 651 mmHg 40%
    11:00 +21°C° 0 mm 2 mps 652 mmHg 35%
    12:00 +22°C° 0 mm 3 mps 651 mmHg 32%
    13:00 +24°C° 0 mm 3 mps 651 mmHg 29%
    14:00 +25°C° 0 mm 3 mps 650 mmHg 26%
    15:00 +22°C° 0 mm 3 mps 650 mmHg 31%
    16:00 +21°C° 0 mm 3 mps 649 mmHg 37%
    17:00 +19°C° 0 mm 2 mps 649 mmHg 42%
    18:00 +17°C° 0 mm 2 mps 649 mmHg 51%
    19:00 +15°C° 0 mm 2 mps 649 mmHg 59%
    20:00 +13°C° 0 mm 1 mps 649 mmHg 68%
    21:00 +13°C° 0 mm 1 mps 649 mmHg 69%
    22:00 +13°C° 0 mm 1 mps 649 mmHg 70%
    23:00 +13°C° 0 mm 1 mps 649 mmHg 71%

    28 May, Tuesday

    Time Temperature Precipitation Wind Pressure Humidity
    00:00 +13°C° 0 mm 1 mps 649 mmHg 72%
    01:00 +13°C° 0 mm 1 mps 649 mmHg 74%
    02:00 +12°C° 0 mm 1 mps 649 mmHg 75%
    03:00 +12°C° 0 mm 1 mps 649 mmHg 73%
    04:00 +12°C° 0 mm 1 mps 649 mmHg 71%
    05:00 +12°C° 0 mm 1 mps 649 mmHg 69%
    06:00 +13°C° 0 mm 1 mps 649 mmHg 68%
    07:00 +13°C° 0 mm 1 mps 650 mmHg 66%
    08:00 +14°C° 0 mm 1 mps 651 mmHg 65%
    09:00 +15°C° 0 mm 1 mps 651 mmHg 63%
    10:00 +16°C° 0 mm 2 mps 651 mmHg 62%
    11:00 +18°C° 0 mm 2 mps 651 mmHg 60%
    12:00 +19°C° 0 mm 2 mps 651 mmHg 59%
    13:00 +19°C° 0 mm 2 mps 650 mmHg 57%
    14:00 +20°C° 0 mm 2 mps 650 mmHg 56%
    15:00 +19°C° 0 mm 2 mps 649 mmHg 60%
    16:00 +18°C° 0 mm 2 mps 649 mmHg 64%
    17:00 +17°C° 0 mm 2 mps 649 mmHg 68%
    18:00 +16°C° 0 mm 2 mps 649 mmHg 74%
    19:00 +15°C° 0 mm 1 mps 649 mmHg 79%
    20:00 +13°C° 0 mm 1 mps 649 mmHg 84%
    21:00 +13°C° 0 mm 1 mps 650 mmHg 83%
    22:00 +13°C° 0 mm 1 mps 650 mmHg 82%
    23:00 +13°C° 0 mm 1 mps 650 mmHg 81%

    29 May, Wednesday

    Time Temperature Precipitation Wind Pressure Humidity
    00:00 +13°C° 0 mm 1 mps 650 mmHg 78%
    01:00 +13°C° 0 mm 1 mps 649 mmHg 76%
    02:00 +13°C° 0 mm 1 mps 649 mmHg 74%
    03:00 +13°C° 0 mm 1 mps 649 mmHg 71%
    04:00 +13°C° 0 mm 1 mps 648 mmHg 69%
    05:00 +13°C° 0 mm 1 mps 648 mmHg 66%
    06:00 +14°C° 0 mm 1 mps 649 mmHg 64%
    07:00 +14°C° 0 mm 2 mps 649 mmHg 63%
    08:00 +15°C° 0 mm 2 mps 649 mmHg 61%
    09:00 +17°C° 0 mm 2 mps 649 mmHg 59%
    10:00 +19°C° 0 mm 2 mps 649 mmHg 58%
    11:00 +21°C° 0 mm 2 mps 649 mmHg 56%
    12:00 +21°C° 0 mm 3 mps 649 mmHg 56%
    13:00 +22°C° 0 mm 3 mps 648 mmHg 56%
    14:00 +22°C° 0 mm 3 mps 647 mmHg 56%
    15:00 +21°C° 0 mm 2 mps 647 mmHg 59%
    16:00 +21°C° 0 mm 2 mps 647 mmHg 63%
    17:00 +20°C° 0 mm 2 mps 647 mmHg 66%
    18:00 +19°C° 0 mm 2 mps 647 mmHg 66%
    19:00 +17°C° 0 mm 2 mps 648 mmHg 66%
    20:00 +16°C° 0 mm 2 mps 648 mmHg 66%
    21:00 +16°C° 0 mm 2 mps 648 mmHg 65%
    22:00 +16°C° 0 mm 2 mps 648 mmHg 63%
    23:00 +15°C° 0 mm 2 mps 648 mmHg 61%
    Show more